Location: Newark
(49.3000°N, 9.4667°E)
Time: 10:44:14
(UTC+00:00)

Tiros 1 - Pass Details

Date: 26 May 2019
Orbit: 631 x 664 km, 48.4° (Epoch: 15 June)

Event Time Altitude Azimuth Distance (km) Brightness Sun altitude
Rises 08:07:16 0° 201° (SSW) 2,908 10.5 42.9°
Reaches altitude 10° 08:10:12 10° 182° (S) 2,008 10.0 43.3°
Maximum altitude 08:13:16 18° 140° (SE) 1,571 10.2 43.8°
Drops below altitude 10° 08:16:21 10° 98° (E) 2,025 10.7 44.3°
Sets 08:19:19 0° 79° (E) 2,945 11.1 44.7°
